GFSGBSN_prec_cloud_003.txt.gz
Cloud_Cover
4 53 90 100 89 32 16 96 100 100 100 100 37 86 100 100 100 100 100 36 29 40 96 52 53 26 2 26 65 77 100 100 100 100 100 100 100 75 96 83 100 65 100 95 90 3 0
6 66 100 100 100 42 100 100 100 100 100 100 100 100 90 95 81 84 50 56 18 93 14 2 18 0 1 1 9 24 67 59 100 70 98 89 100 46 78 100 95 18 37 0 0 0 0
11 76 100 100 100 100 98 97 100 100 100 100 100 100 100 100 100 100 100 100 88 89 78 45 65 25 5 5 2 0 0 0 15 20 86 67 61 98 60 36 65 0 0 0 0 0 0
100 100 100 100 100 100 100 100 100 100 100 100 100 100 100 100 100 100 100 100 88 100 98 66 67 14 4 2 0 0 0 0 0 0 0 0 0 0 0 0 0 0 0 0 0 0 0
100 100 100 100 100 100 100 100 100 100 100 100 100 100 100 100 100 100 100 91 100 99 37 5 3 0 0 0 0 0 0 0 0 0 0 0 0 0 0 0 0 0 0 0 0 0 0
100 100 100 100 100 100 100 100 100 100 100 100 100 100 100 100 100 100 80 34 25 19 0 0 0 0 0 0 0 0 0 0 0 0 0 0 0 0 0 0 0 0 0 0 0 0 0
97 100 100 100 100 100 100 100 100 100 100 100 100 100 100 100 100 100 49 37 5 0 0 0 0 0 0 0 0 0 0 0 0 0 0 0 0 0 0 0 0 0 0 0 0 0 0
73 100 100 100 100 100 100 100 100 100 100 100 100 92 90 99 54 5 7 2 0 0 0 0 0 0 0 0 0 0 0 0 0 0 0 0 0 0 0 0 0 0 0 0 0 0 0
100 100 100 100 100 100 100 100 100 94 55 100 100 91 59 5 5 2 0 0 0 0 0 0 0 0 0 0 0 0 0 0 0 0 0 0 0 0 0 0 0 0 0 0 0 0 0
100 100 100 100 100 100 100 100 100 100 100 84 77 38 5 4 0 0 0 0 0 0 0 0 0 0 0 0 0 0 0 0 0 0 0 0 0 0 0 0 0 0 0 0 0 0 5
69 100 100 100 100 100 100 100 100 99 80 84 5 3 10 8 5 0 0 0 0 0 0 0 0 0 0 0 0 0 0 0 0 0 0 0 0 0 0 0 0 0 0 0 0 0 1
85 100 100 100 100 100 100 100 97 69 100 20 5 25 5 5 5 1 0 0 0 0 0 0 0 0 0 0 0 0 0 0 0 0 0 0 0 0 0 0 0 0 0 0 0 0 0
100 100 100 100 100 100 100 100 93 95 52 5 5 5 4 2 0 0 0 0 0 0 0 0 0 0 0 0 0 0 0 0 0 0 0 0 0 0 0 0 0 0 0 3 0 3 0
100 100 100 100 100 100 100 67 100 100 87 5 5 5 2 0 0 0 0 0 0 0 0 0 0 0 0 0 0 0 0 0 0 0 0 0 0 0 0 0 0 0 0 4 0 5 11
100 100 100 100 100 100 100 97 100 82 87 5 52 5 5 5 5 0 0 0 0 0 0 0 0 0 0 0 0 0 0 0 0 0 0 0 0 0 0 0 0 0 0 0 0 33 67
100 100 100 100 100 100 100 100 100 94 95 5 58 13 5 5 2 2 0 0 0 0 0 1 1 0 0 1 0 0 0 0 0 0 0 0 0 0 0 0 0 0 0 2 5 26 93
100 100 100 100 100 100 97 100 99 98 20 20 57 16 5 1 0 2 0 2 4 1 2 0 4 5 5 5 3 0 0 0 0 0 0 0 1 5 3 5 5 5 5 5 13 5 5
100 100 100 100 100 100 100 100 100 66 98 99 36 56 10 0 0 5 5 5 5 3 3 5 3 5 5 5 5 0 0 0 0 0 0 1 5 5 8 11 84 11 5 5 66 6 2
100 100 100 100 100 100 100 100 97 97 100 88 69 46 5 0 0 0 2 5 5 5 5 7 5 7 6 5 5 0 0 0 0 2 4 4 5 5 5 5 5 5 0 4 5 7 45
100 100 100 100 100 100 100 100 100 98 100 89 67 18 2 0 0 0 0 0 0 5 5 5 5 9 7 5 5 4 2 0 0 0 0 0 2 5 5 0 3 3 1 2 5 65 63
100 100 100 100 100 100 100 100 100 15 99 96 70 18 5 0 0 2 0 0 0 5 5 5 5 4 5 4 5 9 5 4 5 5 5 5 5 61 5 5 43 32 5 94 16 5 93
100 100 100 100 100 100 100 100 61 18 30 5 5 5 5 5 0 0 0 0 0 0 5 5 5 5 5 5 5 5 5 5 3 5 5 5 5 5 72 2 5 20 5 5 5 5 6
100 86 87 100 100 100 100 100 88 18 5 5 5 35 79 13 5 1 1 0 0 0 5 5 5 5 5 11 3 5 5 5 4 4 4 2 8 56 66 95 44 100 9 5 39 23 74
96 100 99 100 100 70 100 100 61 96 23 5 5 5 5 4 4 5 5 5 2 0 5 5 5 5 5 30 10 5 5 5 5 5 5 40 36 62 30 82 80 100 6 64 100 100 5
100 71 99 93 86 38 99 99 68 89 98 91 5 5 16 58 44 5 5 5 5 5 5 5 5 5 5 5 5 10 38 5 9 28 67 26 58 92 98 94 44 91 5 5 14 100 15
100 99 87 100 98 95 54 23 79 5 54 82 93 6 5 6 5 5 5 5 5 5 5 5 6 15 37 42 5 5 6 56 87 68 25 60 7 19 93 100 100 11 5 5 8 7 60
100 100 100 97 87 56 24 5 5 12 26 5 74 35 11 5 5 5 5 5 10 38 5 8 15 8 5 86 93 44 5 19 22 31 71 96 99 95 100 100 51 5 5 5 64 97 97
100 100 100 100 96 82 93 65 39 76 52 49 6 17 7 32 5 5 5 5 5 5 5 5 5 10 93 100 44 67 96 79 66 28 86 73 100 57 91 100 58 5 90 70 88 100 99
100 100 100 100 100 100 100 100 100 100 100 100 97 78 72 90 48 68 94 54 5 5 5 4 5 5 6 72 83 90 98 77 61 99 100 86 99 63 99 67 96 100 100 100 94 88 100

GFSGBSN_prec_cloud_006.txt.gz
Cloud_Cover
0 5 40 99 20 6 100 97 62 100 100 100 100 100 100 100 100 100 100 99 41 41 48 20 0 24 13 0 2 4 74 92 98 33 33 70 100 100 99 100 100 99 100 100 18 19 72
0 5 47 20 13 27 74 57 100 100 100 100 100 100 100 100 100 100 100 91 22 13 0 1 2 13 8 0 0 0 0 0 46 100 98 28 83 63 99 37 42 78 100 100 62 2 0
0 5 17 38 37 32 13 99 100 100 100 100 100 100 100 100 87 15 8 5 7 5 36 24 4 3 2 3 0 0 0 0 0 4 65 79 2 7 82 18 26 68 10 15 0 5 0
8 5 23 15 91 42 100 100 100 100 100 100 100 100 92 5 3 3 10 12 8 28 23 5 6 14 9 4 0 0 0 0 0 0 0 0 0 0 0 0 0 0 0 0 0 0 0
8 12 100 96 99 100 100 100 100 100 100 100 100 100 94 62 5 68 95 100 100 100 100 94 52 6 3 0 0 0 0 0 0 0 0 0 0 0 0 0 0 0 0 0 0 0 0
100 48 91 100 100 100 100 100 100 100 100 100 100 100 100 100 100 100 100 100 97 93 80 58 4 0 0 0 0 0 0 0 0 0 0 0 0 0 0 0 0 0 0 0 0 0 0
100 50 100 100 100 100 100 100 100 100 100 100 100 100 100 100 100 100 74 66 76 29 2 0 0 0 0 0 0 0 0 0 0 0 0 0 0 0 0 0 0 0 0 0 0 0 0
98 98 99 100 100 98 97 100 100 100 100 100 100 100 100 100 100 90 55 5 5 1 0 0 0 0 0 0 0 0 0 0 0 0 0 0 0 0 0 0 0 0 0 0 0 0 0
92 96 82 100 100 100 100 100 100 100 100 100 100 54 29 9 86 33 5 5 1 0 0 0 0 0 0 0 0 0 0 0 0 0 0 0 0 0 0 0 0 0 0 0 0 0 0
100 80 100 100 100 100 100 100 100 100 100 61 94 16 75 33 5 5 4 0 0 0 0 0 0 0 0 0 0 0 0 0 0 0 0 0 0 0 0 0 0 0 0 0 0 0 0
100 100 100 100 100 100 100 100 83 82 31 66 50 98 29 5 5 1 0 0 0 0 0 0 0 0 0 0 0 0 0 0 0 0 0 0 0 0 0 0 0 0 0 0 0 0 0
100 100 100 100 100 100 100 62 99 100 84 36 74 8 17 5 4 2 0 0 0 0 0 0 0 0 0 0 0 0 0 0 0 0 1 0 0 0 0 0 0 0 0 0 0 0 0
100 100 100 100 100 100 100 100 70 57 5 34 71 5 46 74 7 4 2 0 0 0 0 0 0 0 0 0 0 0 0 0 0 0 1 4 0 0 0 0 0 0 0 0 0 4 2
100 100 100 100 100 100 100 100 100 78 94 44 6 97 81 76 10 5 0 0 0 0 0 0 0 0 0 0 0 0 0 0 0 0 0 0 0 0 0 0 0 0 0 3 0 5 4
100 100 100 100 100 100 99 99 54 94 92 64 36 85 87 53 5 0 0 0 0 0 0 0 0 0 0 0 0 0 0 0 0 0 0 0 0 0 0 0 0 0 0 0 0 41 5
100 100 100 100 100 100 100 96 100 90 100 96 13 61 57 5 9 3 0 0 0 0 0 0 0 0 2 0 0 0 0 0 0 0 0 0 0 0 0 0 0 0 0 0 3 15 5
100 100 100 100 100 100 100 100 49 100 100 7 54 56 35 5 5 5 4 3 0 1 3 1 0 0 5 5 5 5 2 0 0 0 0 0 0 0 0 0 3 3 4 4 5 5 7
100 100 100 100 100 100 100 88 98 63 57 47 80 36 45 5 30 5 13 5 0 5 4 5 3 5 5 5 3 4 0 0 0 0 0 0 0 0 0 1 5 0 4 5 3 2 6
100 100 100 100 100 100 100 100 100 100 86 63 86 10 7 5 4 0 4 5 27 43 5 5 7 13 5 5 5 0 0 0 0 0 0 0 0 3 0 2 5 5 0 5 5 27 46
100 100 100 100 100 100 100 100 100 83 51 100 90 74 12 5 5 0 4 5 5 5 5 2 2 5 5 5 5 4 2 1 0 0 0 0 0 0 2 1 5 5 4 5 8 96 96
100 100 100 100 100 100 100 100 100 100 82 99 64 26 14 18 5 5 0 2 5 5 2 0 0 5 5 5 5 4 0 3 0 0 0 0 0 5 5 5 5 57 5 5 13 6 94
100 100 100 100 100 100 100 100 100 100 100 80 52 93 26 5 60 52 5 5 5 5 0 0 0 5 5 5 5 5 1 5 2 0 0 0 5 5 5 5 5 10 5 5 5 5 13
100 100 100 100 100 100 100 100 100 100 99 74 89 73 60 47 5 10 5 5 0 0 0 0 0 1 5 5 5 5 5 5 5 5 5 5 5 57 56 58 50 99 16 2 5 6 8
100 100 100 100 100 100 100 100 100 100 98 58 57 17 6 70 5 4 5 5 4 5 5 5 4 4 0 0 3 5 2 3 5 5 5 65 27 64 61 82 58 98 37 6 53 94 33
99 100 100 100 100 100 100 100 100 100 100 43 43 18 5 59 36 0 5 5 5 5 5 5 5 5 5 0 4 5 5 6 43 36 67 6 89 77 91 99 34 93 20 10 32 24 5
100 100 100 100 100 100 100 100 100 100 100 56 63 55 8 7 5 5 5 5 5 5 5 5 5 0 0 0 4 5 5 5 5 9 42 66 8 27 99 100 100 60 5 5 5 6 5
100 100 100 100 100 100 100 100 100 100 100 83 24 18 10 8 5 5 5 5 5 5 5 9 5 2 0 40 89 34 31 16 5 5 5 94 98 100 100 100 39 5 6 83 100 99 95
100 100 100 100 100 100 100 100 100 100 100 100 99 59 35 17 5 5 5 5 5 5 7 69 5 5 86 100 86 100 21 5 8 37 6 5 66 42 90 100 68 64 79 95 70 36 68
100 100 100 100 100 100 100 100 100 100 100 100 85 17 12 22 11 5 5 5 5 5 5 6 6 9 10 83 60 87 93 87 92 100 34 84 57 94 100 52 70 11 92 99 100 76 54

GFSGBSN_prec_cloud_009.txt.gz
Cloud_Cover
0 0 1 4 5 89 59 99 54 99 20 49 92 100 100 100 100 100 100 100 96 97 83 44 6 0 10 0 0 0 0 0 0 75 100 100 100 100 100 100 100 100 100 100 100 100 98
0 0 5 5 41 35 98 93 100 100 100 100 100 100 100 100 100 100 100 100 98 20 3 0 0 10 7 0 0 0 0 0 0 0 6 92 100 100 74 67 96 100 100 100 100 100 96
0 0 3 15 98 94 100 100 100 100 100 100 100 100 100 100 100 100 100 91 15 0 0 0 0 3 0 0 0 0 0 0 0 0 0 0 9 20 43 78 100 100 99 91 4 81 89
0 1 5 11 5 45 100 100 59 100 100 100 100 100 97 42 11 4 2 4 0 0 4 5 5 3 1 1 0 0 0 0 0 0 0 0 0 0 7 0 0 1 0 0 17 2 0
5 42 5 18 48 85 100 100 100 100 100 100 100 29 5 5 4 5 5 5 2 3 5 9 20 55 2 0 0 0 0 0 0 0 0 0 0 0 0 0 0 0 0 0 0 0 0
78 29 5 22 57 100 100 100 100 100 100 100 38 5 5 2 1 0 22 20 17 66 100 27 6 2 0 0 0 0 0 0 0 0 0 0 0 0 0 0 0 0 0 0 0 0 0
46 60 97 89 98 100 100 100 100 100 78 5 5 5 5 35 92 100 100 100 100 65 7 4 0 0 0 0 0 0 0 0 0 0 0 0 0 0 0 0 0 0 0 0 0 0 0
57 100 100 100 97 100 100 100 100 100 63 97 57 25 65 100 100 100 90 53 64 4 1 0 0 0 0 0 0 0 0 0 0 0 0 0 0 0 0 0 0 0 0 0 0 0 0
59 100 100 92 100 100 99 100 100 81 100 100 100 99 100 100 100 40 18 14 5 0 0 0 0 0 0 0 0 0 0 0 0 0 0 0 0 0 0 0 0 0 0 0 0 0 0
38 100 100 100 100 100 100 100 100 92 100 100 100 97 100 100 80 20 6 5 0 0 0 0 0 0 0 0 0 0 0 0 0 0 0 0 0 0 0 0 0 0 0 0 0 0 0
79 100 100 100 100 99 100 100 100 100 100 99 84 72 100 19 5 5 5 0 0 0 0 0 0 0 0 0 0 0 0 0 0 0 2 0 0 0 0 0 0 0 0 0 0 0 0
98 100 100 100 100 100 100 100 100 100 100 74 14 38 32 20 5 3 0 0 0 0 0 0 0 0 0 0 0 0 0 0 0 0 0 3 5 0 0 0 0 0 0 0 0 0 0
100 100 100 100 100 100 100 100 88 60 50 11 85 87 43 5 8 5 0 0 0 0 0 0 0 0 0 0 0 0 0 0 0 0 0 0 0 3 0 0 0 0 0 0 0 0 0
100 59 100 100 100 100 100 36 86 22 43 20 99 17 10 6 6 1 0 0 0 0 0 0 0 0 0 0 0 0 0 0 0 0 0 0 0 0 0 0 0 0 0 0 0 4 1
100 77 100 100 100 100 100 100 99 6 6 15 44 6 44 50 1 5 4 0 0 0 0 0 0 0 0 0 0 0 0 0 0 0 0 0 0 0 0 0 0 0 0 0 2 5 5
100 100 100 100 100 100 100 100 100 80 19 39 5 19 5 5 5 7 5 0 0 0 0 0 0 0 0 0 0 0 0 0 0 0 0 0 0 0 0 0 0 0 0 0 0 2 0
100 100 100 100 100 100 100 100 100 37 84 51 26 6 61 44 57 36 5 0 0 0 0 0 0 0 0 0 0 0 0 0 0 0 0 0 0 0 0 0 0 2 2 1 1 4 5
100 100 100 100 100 100 100 100 100 57 95 100 63 10 76 30 19 5 4 4 0 0 0 4 3 0 5 5 0 0 0 0 0 0 0 0 0 0 0 0 0 0 2 2 5 5 0
100 100 100 100 100 100 100 100 100 84 97 100 59 31 62 14 8 5 12 5 2 0 5 5 2 4 7 5 5 0 0 0 0 0 0 0 0 0 0 0 0 0 0 5 5 5 5
100 100 100 100 100 100 100 100 100 100 100 67 36 6 86 18 34 5 5 5 0 5 9 10 5 5 8 9 5 1 0 0 0 0 4 0 0 4 2 0 4 1 0 2 4 59 61
100 100 100 100 100 100 100 100 100 100 100 100 48 5 6 66 76 5 5 5 0 5 5 5 5 5 5 5 3 5 3 0 1 5 3 5 3 4 5 5 5 5 1 1 5 5 40
100 100 100 100 100 100 100 100 100 100 100 100 58 46 6 56 50 10 5 5 5 4 3 5 5 0 0 0 0 5 5 5 0 5 5 5 5 5 5 5 5 5 1 5 5 5 7
96 100 100 100 100 100 100 100 100 100 100 100 100 42 55 25 46 8 5 5 5 5 5 5 0 1 5 5 5 4 1 1 0 5 5 5 5 54 100 52 5 85 5 5 5 5 5
96 100 100 100 100 100 100 100 100 100 100 100 100 76 98 82 57 5 5 5 5 5 5 5 5 5 5 5 5 4 1 2 3 5 5 93 10 67 67 17 19 12 4 5 5 5 5
100 99 100 100 100 100 100 100 100 100 100 100 100 100 48 76 29 8 5 5 5 5 5 5 5 5 5 5 5 5 5 5 6 51 6 1 73 79 92 98 22 1 5 5 5 12 8
100 100 100 96 100 100 100 100 100 100 100 100 100 100 100 94 87 83 8 5 5 5 5 5 5 5 5 5 5 5 5 5 5 5 95 42 7 18 90 100 90 1 5 5 10 42 66
100 100 84 100 100 100 100 100 100 100 100 100 100 100 100 100 100 100 85 7 5 5 5 5 5 6 5 17 65 5 5 5 5 5 5 90 98 100 100 100 18 5 12 75 98 96 100
100 100 100 100 100 100 100 100 100 100 100 100 100 100 100 100 99 67 50 71 78 56 14 8 60 8 91 100 95 99 22 18 13 29 6 5 71 69 84 95 61 48 100 99 85 98 87
100 100 100 100 100 100 100 100 100 100 100 100 100 100 100 100 100 91 46 6 8 46 92 83 13 5 6 78 64 97 99 92 67 20 20 47 22 95 100 35 60 64 81 85 100 100 100

GFSGBSN_prec_cloud_015.txt.gz
Cloud_Cover
89 100 100 100 82 24 81 100 100 100 100 61 2 5 12 72 100 100 100 96 1 0 31 93 72 98 100 89 40 0 0 0 0 0 0 0 0 27 96 100 100 100 100 100 100 100 100
100 100 100 100 100 12 76 100 100 82 100 100 20 93 71 100 100 100 96 9 100 99 98 100 100 95 37 44 4 0 0 0 0 0 0 0 0 0 1 3 100 100 100 100 100 100 100
100 100 100 100 100 30 88 100 90 96 71 86 47 14 100 78 94 100 100 100 100 100 100 100 100 100 100 8 0 0 0 0 0 0 0 0 0 0 0 0 12 100 100 100 100 100 100
100 100 100 100 5 16 100 100 99 69 46 100 97 100 95 100 100 100 100 100 100 100 95 41 9 0 0 0 0 0 0 0 0 0 0 0 0 0 0 0 0 0 0 42 96 100 100
100 100 100 8 5 20 60 89 100 100 86 100 100 100 100 100 100 100 100 99 26 2 0 1 8 0 0 0 0 0 0 0 0 0 0 0 0 0 0 0 0 0 31 1 0 0 12
100 100 36 5 18 43 27 94 100 100 99 99 100 100 100 100 100 100 40 11 0 30 18 0 0 0 0 4 2 5 2 0 0 0 0 0 0 0 0 2 92 14 0 0 0 0 0
100 95 58 100 98 33 77 80 100 100 100 100 100 100 100 100 97 5 45 0 0 0 0 3 5 5 5 5 6 5 5 5 1 0 0 0 1 17 0 0 0 0 0 0 0 0 0
100 99 100 100 11 93 89 100 100 100 100 100 99 100 75 20 2 0 12 0 0 4 21 65 82 5 2 0 0 0 0 0 0 0 0 0 0 0 0 0 0 0 0 0 0 0 0
100 100 100 100 51 100 100 100 100 100 100 97 68 6 0 0 2 17 2 26 74 18 5 5 1 0 0 0 0 0 0 0 0 0 0 0 0 0 0 0 0 0 0 0 0 0 0
100 100 100 66 100 100 100 100 100 100 79 8 5 0 0 5 61 96 99 100 78 55 6 0 0 0 0 0 0 0 0 0 0 0 0 0 0 0 0 0 0 0 0 0 0 0 3
100 66 100 94 100 100 100 100 100 24 20 42 5 1 98 100 100 76 94 54 13 2 0 0 0 0 0 0 0 0 0 0 0 0 0 0 0 0 0 0 0 0 0 0 0 0 0
100 100 100 100 100 100 100 100 92 48 70 35 60 100 100 100 36 62 56 6 2 0 0 0 0 0 0 0 0 0 0 0 0 0 0 0 0 0 0 0 0 0 0 0 0 0 1
100 100 92 100 100 100 100 100 100 100 100 100 100 100 100 77 55 43 31 5 4 1 0 0 0 0 0 0 0 0 0 0 0 2 0 0 0 0 0 1 0 0 0 5 55 30 66
100 100 100 100 100 100 100 100 100 100 100 100 100 100 100 57 78 55 20 5 1 0 0 0 0 0 0 0 0 0 0 0 0 0 0 4 27 0 0 0 0 0 0 3 2 5 13
100 100 100 100 100 100 100 100 100 100 100 100 100 100 60 5 63 35 5 5 7 5 0 0 0 0 0 0 0 0 0 0 0 1 1 0 2 0 0 0 0 0 0 0 0 0 0
100 100 100 100 100 100 100 100 100 100 100 100 94 48 45 18 50 36 5 5 2 3 0 0 0 0 0 0 0 0 0 0 0 0 0 0 1 0 0 0 0 0 0 4 4 22 0
100 100 100 100 100 100 100 100 100 100 100 100 88 73 82 5 6 16 5 0 0 0 0 0 0 0 0 0 5 5 2 0 0 0 0 0 0 0 0 0 1 4 5 0 0 0 4
100 100 100 100 100 100 100 100 100 100 100 94 83 41 46 5 5 5 5 0 0 0 0 0 2 2 4 5 5 5 5 0 0 0 0 0 0 0 0 0 0 0 1 0 0 2 5
100 100 100 100 100 100 100 100 100 100 100 95 100 76 11 15 6 8 5 5 3 0 0 0 0 0 0 5 5 5 4 4 0 0 0 0 0 0 1 0 1 0 3 1 4 5 4
100 100 100 100 100 100 100 100 100 84 76 81 46 54 29 15 9 10 18 35 5 5 1 1 0 0 0 5 5 5 0 0 0 0 3 5 4 3 3 4 5 5 5 5 5 21 16
100 100 100 100 100 100 100 100 100 100 99 100 79 49 65 5 12 7 32 37 5 5 5 5 5 0 5 5 3 1 0 0 0 0 0 0 0 0 0 0 0 5 5 5 5 16 88
100 100 100 100 100 100 100 100 100 100 68 42 87 61 17 5 5 6 7 59 54 55 6 5 5 5 4 0 0 0 0 0 0 2 5 5 5 5 5 0 0 0 0 5 5 26 5
100 100 100 100 100 100 100 100 100 100 100 12 40 95 6 31 5 5 13 70 64 35 33 5 5 5 5 2 0 0 0 0 0 5 5 5 5 5 9 7 5 9 13 5 32 84 96
100 100 100 100 100 100 100 100 100 100 100 97 17 40 100 19 5 5 5 12 51 13 6 5 11 5 5 10 5 5 5 5 5 5 5 5 5 30 16 68 90 48 48 7 6 5 85
86 100 100 100 100 100 100 100 100 100 100 100 99 100 100 100 72 19 6 5 17 6 6 39 67 95 87 10 8 15 25 76 48 5 5 5 10 40 72 8 61 62 16 5 5 5 14
100 100 100 100 100 100 100 100 100 100 100 100 100 100 100 100 100 100 97 100 98 50 6 43 82 72 20 5 39 95 10 5 40 5 5 3 21 13 73 36 24 11 97 91 16 40 52
100 100 100 100 100 100 100 100 100 100 100 100 100 100 100 98 100 100 100 100 100 97 86 91 94 52 43 68 91 87 10 5 5 30 73 67 96 62 86 73 5 6 5 5 30 62 68
100 100 87 100 100 100 100 100 100 100 100 100 100 100 100 100 100 100 96 32 64 100 100 100 100 100 100 100 96 54 97 5 5 5 7 32 37 75 71 92 86 22 60 74 35 56 98
100 100 100 100 100 100 100 100 100 100 100 100 100 100 100 100 100 100 100 100 100 100 100 100 100 100 100 100 98 85 100 90 37 5 5 11 7 7 52 43 86 100 100 100 96 70 86